Change the Weather History Date:

Wednesday, September 12, 2012

  Actual Average Record
Temperature  
Mean Temperature 74 °F -  
Max Temperature 90 °F 74 °F 91 °F (2010)
Min Temperature 57 °F 51 °F 51 °F (2002)
Cooling Degree Days 8    
Growing Degree Days 24 (Base 50)    
Moisture  
Dew Point 42 °F    
Average Humidity 32    
Maximum Humidity 55    
Minimum Humidity 11    
Precipitation  
Precipitation 0.00 in 0.04 in - ()
Sea Level Pressure  
Sea Level Pressure 30.08 in    
Wind  
Wind Speed 4 mph ()    
Max Wind Speed 21 mph    
Max Gust Speed 23 mph    
Visibility 16.5 miles    
Events      
Averages and records for this station are not official NWS values.
T = Trace of Precipitation, MM = Missing Value Source: Averaged Metar Reports

Daily Weather History Graph

Daily Weather History Graph

Search for Another Location

Airport or City:

Trip Planner

Search our weather history database for the weather conditions in past years. The results will help you decide how hot, cold, wet, or windy it might be!

Date:

Astronomy

Sep. 12, 2012 Rise Set
Actual Time 7:52 AM CEST 8:27 PM CEST
Civil Twilight 7:24 AM CEST 8:55 PM CEST
Nautical Twilight 6:52 AM CEST 9:27 PM CEST
Astronomical Twilight 6:19 AM CEST 10:00 PM CEST
Moon 3:54 AM CEST (9/12) 6:07 PM CEST (9/12)
Length of Visible Light 13h 30m
Length of Day
12h 35m
Waning Crescent, 15% of the Moon is Illuminated
Sep 12
Waning Crescent
Sep 16
New
Sep 22
First Quarter
Sep 30
Full
Oct 8
Last Quarter

Hourly Weather History & Observations

Time (CEST) Temp. Dew Point Humidity Pressure Visibility Wind Dir Wind Speed Gust Speed Precip Events Conditions
12:00 AM 73.4 °F 39.2 °F 29% 30.09 in - North 2.3 mph - N/A   Clear
12:30 AM 71.6 °F 39.2 °F 31% 30.12 in - North 3.5 mph - N/A   Clear
1:00 AM 69.8 °F 39.2 °F 33% 30.12 in - Calm Calm - N/A   Clear
1:30 AM 68.0 °F 41.0 °F 37% 30.12 in - North 3.5 mph - N/A   Clear
2:00 AM 65 °F 40 °F 29% 30.07 in 19 mi North 4.6 mph - -  
2:00 AM 68.0 °F 42.8 °F 40% 30.12 in - North 4.6 mph - N/A   Clear
2:30 AM 66.2 °F 42.8 °F 43% 30.12 in - North 3.5 mph - N/A   Clear
3:00 AM 66.2 °F 42.8 °F 43% 30.09 in - North 2.3 mph - N/A   Clear
3:30 AM 64.4 °F 42.8 °F 45% 30.12 in - NNW 3.5 mph - N/A   Clear
4:00 AM 62.6 °F 42.8 °F 48% 30.09 in - Variable 2.3 mph - N/A   Clear
4:30 AM 62.6 °F 42.8 °F 48% 30.12 in - Calm Calm - N/A   Clear
5:00 AM 62.6 °F 42.8 °F 48% 30.09 in - Variable 1.2 mph - N/A   Clear
5:30 AM 62.6 °F 42.8 °F 48% 30.12 in - Variable 2.3 mph - N/A   Clear
6:00 AM 60.8 °F 42.8 °F 52% 30.12 in - NNE 2.3 mph - N/A   Clear
6:30 AM 60.8 °F 42.8 °F 52% 30.12 in - Variable 2.3 mph - N/A   Clear
7:00 AM 60.8 °F 42.8 °F 52% 30.12 in - Calm Calm - N/A   Clear
7:30 AM 59.0 °F 42.8 °F 55% 30.12 in - Calm Calm - N/A   Clear
8:00 AM 57 °F 40 °F 41% 30.11 in 12 mi NNE 2.3 mph - -  
8:00 AM 59.0 °F 41.0 °F 51% 30.12 in - Variable 1.2 mph - N/A   Clear
8:30 AM 59.0 °F 42.8 °F 55% 30.12 in - NNW 3.5 mph - N/A   Clear
9:00 AM 64.4 °F 42.8 °F 45% 30.12 in - Calm Calm - N/A   Clear
9:30 AM 68.0 °F 42.8 °F 40% 30.12 in - Calm Calm - N/A   Clear
10:00 AM 68.0 °F 42.8 °F 40% 30.12 in - WSW 2.3 mph - N/A   Clear
10:30 AM 75.2 °F 42.8 °F 31% 30.15 in - Calm Calm - N/A   Clear
11:00 AM 75.2 °F 42.8 °F 31% 30.15 in - West 1.2 mph - N/A   Clear
11:30 AM 77.0 °F 42.8 °F 29% 30.15 in - Variable 2.3 mph - N/A   Clear
12:00 PM 80.6 °F 44.6 °F 28% 30.12 in - Variable 2.3 mph - N/A   Clear
12:30 PM 80.6 °F 44.6 °F 28% 30.12 in - SSW 3.5 mph - N/A   Clear
1:00 PM 84.2 °F 44.6 °F 25% 30.12 in - WSW 3.5 mph - N/A   Clear
1:30 PM 86.0 °F 44.6 °F 23% 30.09 in - ESE 2.3 mph - N/A   Clear
2:00 PM 87 °F 43 °F 13% 29.96 in 16 mi South 4.6 mph - -   Scattered Clouds
2:00 PM 86.0 °F 46.4 °F 25% 30.09 in - South 3.5 mph - N/A   Clear
2:30 PM 87.8 °F 46.4 °F 24% 30.06 in - Variable 3.5 mph - N/A   Clear
3:00 PM 89.6 °F 44.6 °F 21% 30.06 in - WNW 6.9 mph - N/A   Clear
3:30 PM 91.4 °F 46.4 °F 21% 30.04 in - West 10.4 mph - N/A   Clear
4:00 PM 91.4 °F 44.6 °F 20% 30.04 in - West 11.5 mph 23.0 mph N/A   Clear
4:30 PM 91.4 °F 44.6 °F 20% 30.04 in - WNW 16.1 mph - N/A   Clear
5:00 PM 91.4 °F 42.8 °F 18% 30.01 in - NW 13.8 mph - N/A   Clear
5:30 PM 91.4 °F 41.0 °F 17% 30.01 in - NW 16.1 mph - N/A   Clear
6:00 PM 91.4 °F 39.2 °F 16% 30.01 in - WNW 10.4 mph - N/A   Clear
6:30 PM 89.6 °F 37.4 °F 16% 30.01 in - NNW 11.5 mph - N/A   Clear
7:00 PM 89.6 °F 35.6 °F 15% 30.01 in - WNW 15.0 mph - N/A   Clear
7:30 PM 87.8 °F 37.4 °F 17% 30.01 in - NW 18.4 mph - N/A   Clear
8:00 PM 84 °F 38 °F 11% 29.89 in 19 mi NW 20.7 mph - -   Scattered Clouds
8:00 PM 86.0 °F 39.2 °F 19% 30.01 in - NW 20.7 mph - N/A   Clear
8:30 PM 84.2 °F 39.2 °F 20% 30.01 in - NW 19.6 mph - N/A   Clear
9:00 PM 84.2 °F 42.8 °F 23% 30.01 in - NW 15.0 mph - N/A   Clear
9:30 PM 82.4 °F 42.8 °F 25% 30.04 in - NW 15.0 mph - N/A   Clear
10:00 PM 82.4 °F 42.8 °F 25% 30.04 in - NNW 9.2 mph - N/A   Clear
10:30 PM 80.6 °F 44.6 °F 28% 30.04 in - North 5.8 mph - N/A   Clear
11:30 PM 77.0 °F 46.4 °F 34% 30.04 in - North 2.3 mph - N/A   Clear